sat.trackr.live / text

‹ back to catalog

STARLINK-3504

NORAD 51881 · 2022-022AF

PAYLOAD ACTIVE UNKNOWN

§ Identity

Operator
Country
US
Launch date
2022-03-03
Launch site
AFETR
Launch vehicle
Mass (kg)
RCS (m²)

Purposes: comms

External: N2YO · Heavens-Above · Gunter

§ Orbital elements

Epoch: 2026-09-19T07:07:15.528864Z

Period
93.85 min
Inclination
53.1598°
Eccentricity
0.0001498
Mean motion
15.34381282 rev/d
Perigee alt
461.7 km
Apogee alt
463.8 km
Semi-major
6,840.9 km
B*
9.1392e-5
RAAN
194.9811°
Arg perigee
85.3917°
Mean anomaly
274.7257°
Rev number
25,273

§ Raw data

STARLINK-35041 51881U 22022AF  26262.29670751  .00002711  00000+0  91392-4 0  99942 51881  53.1598 194.9811 0001498  85.3917 274.7257 15.34381282252734

JSON: /api/v1/satellites/51881 · /tle

For live sub-satellite position, see the globe view (requires WebGL).

§ Visibility from observer

Set your observer location to see the next 7 days of passes ≥ 10°. The values pass through the URL so the page stays shareable.

No JS? Fill the form by hand. The geolocation button needs JavaScript.